Regional Weather Roundup
Issued by NWS Bismarck, ND

Home | Current Version | Previous Version | Text Only | Print | Product List | Glossary On
Versions: 1 2 3 4 5 6 7 8 9 10 11 12 13 14 15 16 17 18 19 20 21 22 23 24 25 26 27 28 29 30 31 32 33 34 35 36 37 38 39 40 41 42 43 44 45 46 47 48 49 50
000
ASUS43 KBIS 251101
RWRBIS

NWR BROADCAST TEXT
NATIONAL WEATHER SERVICE BISMARCK ND
500 AM CST SUN JAN 25 2015

NOTE: "FAIR" INDICATES FEW OR NO CLOUDS BELOW 12,000 FEET WITH NO
SIGNIFICANT WEATHER AND/OR OBSTRUCTIONS TO VISIBILITY.


CITY           SKY/WX    TMP DP  RH WIND       PRES   REMARKS
WILLISTON      CLOUDY    35  30  82 N14G21    29.98F
MINOT          LGT SNOW  27  25  92 N7        29.93S FOG     WCI  19
MINOT AFB      FRZ RAIN  24  24 100 N10       29.93F WCI  14
BISMARCK       CLOUDY    37  32  82 NW13      29.94R
DICKINSON      CLOUDY    33  29  85 W7        29.96R
GARRISON         N/A     35  33  92 NW15      29.92R
HETTINGER ARPT CLEAR     31  27  85 NW15      29.99R
JAMESTOWN      CLOUDY    21  18  88 N9        29.95R WCI  11
CARRINGTON     CLOUDY    19  19 100 MISG      29.97R
CROSBY         CLOUDY    28  28 100 NW17      29.99R WCI  16
HAZEN          CLOUDY    36  32  87 NW13      29.96R
OAKES            N/A     25  25 100 N10       29.93R WCI  15
$$

CITY           SKY/WX    TMP DP  RH WIND       PRES   REMARKS
GRAND FORKS    CLEAR     14   9  80 N8        29.99R WCI   3
GRAND FORKS AF CLEAR     13   9  83 N7        30.00R WCI   3
DEVILS LAKE    CLOUDY    16  10  79 NE5       29.96R WCI   9
FARGO          CLOUDY    22  16  78 N12       29.95R WCI  10
GWINNER        CLOUDY    25  25 100 N14       29.94R WCI  13
$$

CITY           SKY/WX    TMP DP  RH WIND       PRES   REMARKS
ABERDEEN       CLOUDY    29  26  89 N9        29.93R
MOBRIDGE       CLOUDY    38  33  82 NW9       29.90R
BUFFALO          N/A     32  25  75 NW17      29.95R
RAPID CITY     CLEAR     37  21  52 NW21      30.02S
GLASGOW        CLOUDY    31  26  82 SW5       30.02F
SIDNEY         CLOUDY    32  27  80 W5        30.03S
WOLF POINT     PTCLDY    30  25  81 SW13      30.02F WCI  20
GLENDIVE       CLEAR     30  27  86 W12       30.02F
MILES CITY     PTCLDY    31  26  82 W10       30.05F
BAKER          CLEAR     28  24  85 W12       30.04F WCI  18
$$

CITY           SKY/WX    TMP DP  RH WIND       PRES   REMARKS
BILLINGS       CLOUDY    42  32  67 SW12      30.07F
GREAT FALLS    PTCLDY    46  37  71 SW15      30.00F
REGINA         FOG       21  21 100 N3        29.96F VSB 5/8
$$



USA.gov is the U.S. government's official web portal to all federal, state and local government web resources and services.